Weather History for Clinton, NC

Change the Weather History Date:

Sunday, May 19, 2013

  Actual Average (KFAY) Record (KFAY)
Temperature  
Mean Temperature 74 °F 72 °F  
Max Temperature 79 °F 83 °F 96 °F (1996)
Min Temperature 68 °F 60 °F 44 °F (1976)
Degree Days  
Heating Degree Days 0 0  
Month to date heating degree days 23  
Since 1 July heating degree days 2730  
Cooling Degree Days 8 7  
Month to date cooling degree days 98  
Year to date cooling degree days 181  
Growing Degree Days 24 (Base 50)    
Moisture  
Dew Point 68 °F    
Average Humidity 90    
Maximum Humidity 100    
Minimum Humidity 66    
Precipitation  
Precipitation 0.06 in 0.11 in 2.15 in (1925)
Month to date precipitation 1.70  
Year to date precipitation 14.13  
Sea Level Pressure  
Sea Level Pressure 30.13 in    
Wind  
Wind Speed 1 mph (SSE)    
Max Wind Speed 9 mph    
Max Gust Speed 24 mph    
Visibility 10 miles    
Events Rain    
T = Trace of Precipitation, MM = Missing Value Source: NWS Daily Summary

Daily Weather History Graph

Daily Weather History Graph

Search for Another Location

Airport:

Trip Planner

Search our weather history database for the weather conditions in past years. The results will help you decide how hot, cold, wet, or windy it might be!

Date:

Astronomy

May. 19, 2013 Rise Set
Actual Time 6:06 AM EDT 8:13 PM EDT
Civil Twilight 5:38 AM EDT 8:41 PM EDT
Nautical Twilight 5:04 AM EDT 9:16 PM EDT
Astronomical Twilight 4:26 AM EDT 9:53 PM EDT
Moon 2:28 PM EDT (5/19) 2:15 AM EDT (5/19)
Length of Visible Light 15h 03m
Length of Day
14h 06m
Waxing Gibbous, 65% of the Moon is Illuminated
May 19
Waxing Gibbous
May 25
Full
May 31
Last Quarter
Jun 8
New
Jun 16
First Quarter

Hourly Weather History & Observations

Time (EDT) Temp. Dew Point Humidity Pressure Visibility Wind Dir Wind Speed Gust Speed Precip Events Conditions
12:15 AM 70.3 °F 67.1 °F 89% 30.15 in 10.0 mi Calm Calm - N/A   Mostly Cloudy
12:35 AM 70.3 °F 67.1 °F 89% 30.15 in 10.0 mi Calm Calm - N/A   Scattered Clouds
12:55 AM 70.2 °F 67.1 °F 90% 30.14 in 10.0 mi Calm Calm - N/A   Clear
1:15 AM 70.0 °F 67.1 °F 91% 30.14 in 10.0 mi Calm Calm - N/A   Mostly Cloudy
1:35 AM 69.8 °F 67.1 °F 91% 30.13 in 10.0 mi Calm Calm - N/A   Mostly Cloudy
1:55 AM 69.4 °F 67.1 °F 92% 30.13 in 10.0 mi Calm Calm - N/A   Scattered Clouds
2:15 AM 69.6 °F 67.1 °F 92% 30.13 in 10.0 mi Calm Calm - N/A   Scattered Clouds
2:35 AM 69.4 °F 67.1 °F 92% 30.13 in 10.0 mi Calm Calm - N/A   Clear
2:55 AM 69.1 °F 67.1 °F 93% 30.13 in 10.0 mi Calm Calm - N/A   Clear
3:15 AM 68.9 °F 67.1 °F 94% 30.12 in 10.0 mi Calm Calm - N/A   Clear
3:35 AM 68.9 °F 67.1 °F 94% 30.13 in 10.0 mi Calm Calm - N/A   Scattered Clouds
3:55 AM 68.5 °F 67.1 °F 95% 30.12 in 10.0 mi Calm Calm - N/A   Scattered Clouds
4:15 AM 68.5 °F 67.1 °F 95% 30.13 in 10.0 mi Calm Calm - N/A   Mostly Cloudy
4:35 AM 68.5 °F 67.1 °F 95% 30.13 in 10.0 mi Calm Calm - N/A   Overcast
4:55 AM 68.4 °F 67.1 °F 96% 30.13 in 10.0 mi Calm Calm - N/A   Mostly Cloudy
5:15 AM 68.2 °F 67.1 °F 96% 30.13 in 10.0 mi Calm Calm - N/A   Clear
5:35 AM 68.0 °F 66.9 °F 96% 30.13 in 10.0 mi Calm Calm - N/A   Scattered Clouds
5:55 AM 68.0 °F 66.9 °F 96% 30.13 in 10.0 mi Calm Calm - N/A   Overcast
6:15 AM 68.0 °F 67.1 °F 97% 30.14 in 10.0 mi Calm Calm - N/A   Mostly Cloudy
6:35 AM 68.0 °F 66.9 °F 96% 30.15 in 7.0 mi Calm Calm - N/A   Mostly Cloudy
6:55 AM 68.0 °F 66.9 °F 96% 30.15 in 7.0 mi Calm Calm - N/A   Scattered Clouds
7:15 AM 68.4 °F 67.1 °F 96% 30.15 in 7.0 mi Calm Calm - N/A   Clear
7:35 AM 69.8 °F 67.5 °F 92% 30.15 in 10.0 mi Calm Calm - N/A   Clear
7:55 AM 71.6 °F 68.0 °F 88% 30.16 in 10.0 mi Calm Calm - N/A   Clear
8:15 AM 71.6 °F 67.5 °F 87% 30.16 in 10.0 mi Calm Calm - N/A   Clear
8:35 AM 72.5 °F 67.6 °F 85% 30.16 in 10.0 mi South 3.5 mph - N/A   Clear
8:55 AM 73.9 °F 68.0 °F 82% 30.17 in 10.0 mi South 5.8 mph - N/A   Clear
9:15 AM 75.2 °F 68.2 °F 79% 30.16 in 10.0 mi South 4.6 mph - N/A   Clear
9:35 AM 75.9 °F 68.4 °F 77% 30.17 in 10.0 mi South 4.6 mph - N/A   Clear
9:55 AM 76.5 °F 68.2 °F 75% 30.17 in 10.0 mi South 9.2 mph - N/A   Scattered Clouds
10:15 AM 77.4 °F 68.0 °F 73% 30.16 in 10.0 mi SSE 4.6 mph - N/A   Mostly Cloudy
10:35 AM 78.8 °F 68.0 °F 69% 30.16 in 10.0 mi South 8.1 mph - N/A   Scattered Clouds
10:55 AM 78.3 °F 66.2 °F 66% 30.16 in 10.0 mi SSW 4.6 mph - N/A   Mostly Cloudy
11:15 AM 76.8 °F 67.8 °F 74% 30.16 in 10.0 mi Calm Calm - N/A   Overcast
11:35 AM 79.5 °F 67.3 °F 66% 30.15 in 10.0 mi SE 5.8 mph - N/A   Overcast
11:55 AM 74.5 °F 65.5 °F 73% 30.17 in 10.0 mi South 9.2 mph 24.2 mph N/A   Mostly Cloudy
12:15 PM 71.1 °F 68.2 °F 91% 30.16 in 7.0 mi South 3.5 mph - N/A Rain Light Rain
12:35 PM 70.9 °F 68.9 °F 93% 30.17 in 10.0 mi SW 3.5 mph - 0.01 in Rain Rain
12:55 PM 71.1 °F 69.6 °F 95% 30.15 in 10.0 mi WSW 3.5 mph - 0.03 in Rain Light Rain
1:15 PM 70.9 °F 68.7 °F 93% 30.15 in 10.0 mi Calm Calm - N/A   Light Drizzle
1:35 PM 70.7 °F 68.7 °F 93% 30.14 in 10.0 mi Calm Calm - N/A Rain Light Rain
1:55 PM 70.7 °F 68.9 °F 94% 30.14 in 10.0 mi SSW 3.5 mph - N/A Rain Light Rain
2:15 PM 70.9 °F 68.9 °F 93% 30.13 in 10.0 mi Calm Calm - 0.01 in Rain Light Rain
2:35 PM 72.7 °F 69.6 °F 90% 30.11 in 10.0 mi Calm Calm - 0.01 in   Scattered Clouds
2:55 PM 73.4 °F 69.8 °F 88% 30.11 in 10.0 mi Calm Calm - N/A   Clear
3:15 PM 74.8 °F 70.0 °F 85% 30.11 in 10.0 mi Calm Calm - N/A   Clear
3:35 PM 76.6 °F 70.0 °F 80% 30.11 in 10.0 mi Calm Calm - N/A   Clear
3:55 PM 77.0 °F 69.8 °F 78% 30.09 in 10.0 mi Calm Calm - N/A   Scattered Clouds
4:15 PM 77.9 °F 70.0 °F 76% 30.08 in 10.0 mi Calm Calm - N/A   Scattered Clouds
4:35 PM 78.6 °F 69.4 °F 73% 30.09 in 10.0 mi SSE 3.5 mph - N/A   Mostly Cloudy
4:55 PM 78.8 °F 69.6 °F 73% 30.08 in 10.0 mi SE 5.8 mph - N/A   Scattered Clouds
5:15 PM 73.4 °F 66.4 °F 79% 30.10 in 10.0 mi SE 6.9 mph 21.9 mph N/A   Mostly Cloudy
5:35 PM 69.8 °F 68.0 °F 94% 30.09 in 7.0 mi East 5.8 mph - 0.01 in Rain Heavy Rain
5:55 PM 69.1 °F 68.2 °F 97% 30.09 in 10.0 mi SE 3.5 mph - 0.01 in Rain Light Rain
6:15 PM 69.8 °F 68.5 °F 96% 30.10 in 7.0 mi ESE 4.6 mph - 0.01 in   Drizzle
6:35 PM 70.2 °F 68.9 °F 96% 30.10 in 10.0 mi East 4.6 mph - 0.01 in Rain Light Rain
6:55 PM 70.3 °F 69.4 °F 97% 30.10 in 10.0 mi Calm Calm - 0.01 in   Overcast
7:15 PM 70.7 °F 69.8 °F 97% 30.09 in 10.0 mi ESE 4.6 mph - N/A Rain Light Rain
7:35 PM 70.9 °F 70.0 °F 97% 30.10 in 10.0 mi Calm Calm - N/A   Mostly Cloudy
7:55 PM 70.7 °F 70.3 °F 99% 30.11 in 7.0 mi SE 3.5 mph - N/A Rain Light Rain
8:15 PM 70.7 °F 70.3 °F 99% 30.11 in 7.0 mi Calm Calm - N/A   Scattered Clouds
8:35 PM 70.7 °F 70.3 °F 99% 30.11 in 10.0 mi Calm Calm - N/A   Mostly Cloudy
8:55 PM 70.3 °F 70.2 °F 99% 30.11 in 7.0 mi ESE 3.5 mph - N/A   Scattered Clouds
9:15 PM 70.2 °F 70.2 °F 100% 30.11 in 7.0 mi Calm Calm - N/A   Scattered Clouds
9:35 PM 70.3 °F 70.0 °F 99% 30.13 in 10.0 mi Calm Calm - N/A   Mostly Cloudy
9:55 PM 70.3 °F 70.0 °F 99% 30.13 in 10.0 mi Calm Calm - N/A   Overcast
10:15 PM 70.3 °F 69.8 °F 98% 30.13 in 10.0 mi Calm Calm - N/A   Overcast
10:35 PM 70.0 °F 69.6 °F 99% 30.13 in 10.0 mi Calm Calm - N/A   Overcast
10:55 PM 70.0 °F 69.3 °F 98% 30.13 in 10.0 mi Calm Calm - N/A   Scattered Clouds
11:15 PM 69.8 °F 69.3 °F 98% 30.13 in 10.0 mi Calm Calm - N/A   Mostly Cloudy
11:35 PM 69.4 °F 69.1 °F 99% 30.13 in 10.0 mi Calm Calm - N/A   Mostly Cloudy
11:55 PM 69.4 °F 69.1 °F 99% 30.13 in 10.0 mi Calm Calm - N/A   Scattered Clouds